Weather History for KDOV - February, 2014

Change the Weather History Date:

Sunday, February 2, 2014

  Actual Average Record
Temperature  
Mean Temperature 46 °F -  
Max Temperature 56 °F 46 °F 69 °F (1967)
Min Temperature 36 °F 27 °F 0 °F (1961)
Degree Days  
Heating Degree Days 19    
Moisture  
Dew Point 40 °F    
Average Humidity 89    
Maximum Humidity 100    
Minimum Humidity 49    
Precipitation  
Precipitation 0.00 in - - ()
Sea Level Pressure  
Sea Level Pressure 29.98 in    
Wind  
Wind Speed 5 mph (SSE)    
Max Wind Speed 9 mph    
Max Gust Speed -    
Visibility 10 miles    
Events Rain    
Averages and records for this station are not official NWS values.
T = Trace of Precipitation, MM = Missing Value Source: NWS Daily Summary

Daily Weather History Graph

Daily Weather History Graph

Search for Another Location

Airport or City:

Trip Planner

Search our weather history database for the weather conditions in past years. The results will help you decide how hot, cold, wet, or windy it might be!

Date:

Astronomy

Feb. 02, 2014 Rise Set
Actual Time 7:07 AM EST 5:24 PM EST
Civil Twilight 6:39 AM EST 5:52 PM EST
Nautical Twilight 6:07 AM EST 6:24 PM EST
Astronomical Twilight 5:36 AM EST 6:55 PM EST
Moon 8:34 AM EST 9:03 PM EST
Length of Visible Light 11h 12m
Length of Day
10h 16m
Waxing Crescent, 11% of the Moon is Illuminated
Feb 2
Waxing Crescent
Feb 6
First Quarter
Feb 14
Full
Feb 22
Last Quarter
Mar 1
New

Hourly Weather History & Observations

Time (EST) Temp. Windchill Dew Point Humidity Pressure Visibility Wind Dir Wind Speed Gust Speed Precip Events Conditions
12:49 AM 42.8 °F 41.1 °F 42.8 °F 100% 29.98 in 10.0 mi SSE 3.5 mph - N/A Rain Light Rain
12:58 AM 41.7 °F 39.8 °F 41.5 °F 99% 29.98 in 10.0 mi SSE 3.5 mph - 0.00 in Rain Light Rain
12:59 AM 41.0 °F 39.0 °F 41.0 °F 100% 29.97 in 10.0 mi SSE 3.5 mph - N/A   Overcast
1:09 AM 41.0 °F 38.0 °F 41.0 °F 100% 29.96 in 10.0 mi SSE 4.6 mph - N/A   Overcast
1:34 AM 42.8 °F 40.1 °F 42.8 °F 100% 29.96 in 10.0 mi SSW 4.6 mph - N/A   Overcast
1:44 AM 42.8 °F 38.0 °F 42.8 °F 100% 29.96 in 10.0 mi SSW 8.1 mph - N/A   Overcast
1:49 AM 42.8 °F 38.0 °F 42.8 °F 100% 29.96 in 10.0 mi SSW 8.1 mph - N/A   Overcast
1:58 AM 42.8 °F 37.5 °F 42.6 °F 99% 29.97 in 10.0 mi South 9.2 mph - 0.00 in   Overcast
2:13 AM 42.8 °F 38.0 °F 42.8 °F 100% 29.95 in 10.0 mi South 8.1 mph - N/A   Overcast
2:58 AM 41.0 °F 37.1 °F 40.6 °F 99% 29.95 in 10.0 mi SSW 5.8 mph - N/A   Partly Cloudy
3:23 AM 41.0 °F 39.0 °F 41.0 °F 100% 29.95 in 10.0 mi SW 3.5 mph - N/A   Mostly Cloudy
3:48 AM 41.0 °F 37.1 °F 41.0 °F 100% 29.94 in 10.0 mi South 5.8 mph - N/A   Scattered Clouds
3:58 AM 40.5 °F 36.5 °F 40.3 °F 99% 29.95 in 10.0 mi South 5.8 mph - N/A   Partly Cloudy
4:58 AM 38.1 °F 34.6 °F 37.9 °F 99% 29.94 in 10.0 mi SSW 4.6 mph - N/A   Clear
5:58 AM 39.4 °F - 39.2 °F 99% 29.96 in 10.0 mi South 2.3 mph - N/A   Clear
6:58 AM 37.0 °F 32.4 °F 37.0 °F 100% 29.97 in 10.0 mi South 5.8 mph - N/A   Clear
7:58 AM 36.7 °F 34.1 °F 36.7 °F 100% 29.98 in 10.0 mi SSE 3.5 mph - N/A   Clear
8:58 AM 42.4 °F 40.7 °F 42.3 °F 99% 29.99 in 10.0 mi South 3.5 mph - N/A   Clear
9:58 AM 47.7 °F - 41.4 °F 79% 29.99 in 10.0 mi SW 5.8 mph - N/A   Clear
10:58 AM 52.0 °F - 36.1 °F 55% 30.01 in 10.0 mi West 8.1 mph - N/A   Clear
11:58 AM 53.8 °F - 36.0 °F 51% 29.98 in 10.0 mi Variable 3.5 mph - N/A   Partly Cloudy
12:58 PM 56.1 °F - 37.0 °F 49% 29.97 in 10.0 mi ENE 6.9 mph - N/A   Scattered Clouds
1:58 PM 51.6 °F - 41.4 °F 68% 29.97 in 10.0 mi East 6.9 mph - N/A   Mostly Cloudy
2:58 PM 50.5 °F - 40.8 °F 69% 29.96 in 10.0 mi East 4.6 mph - N/A   Overcast
3:58 PM 49.8 °F - 39.2 °F 67% 29.94 in 10.0 mi ESE 6.9 mph - N/A   Partly Cloudy
4:58 PM 44.6 °F 42.2 °F 37.6 °F 76% 29.98 in 10.0 mi ENE 4.6 mph - N/A   Clear
5:58 PM 41.0 °F 39.0 °F 36.9 °F 85% 30.00 in 10.0 mi NE 3.5 mph - N/A   Clear
6:58 PM 38.5 °F - 37.0 °F 95% 30.01 in 10.0 mi East 2.3 mph - N/A   Clear
7:58 PM 39.7 °F - 37.4 °F 91% 30.01 in 10.0 mi ESE 1.2 mph - N/A   Overcast
8:58 PM 40.3 °F 36.3 °F 39.4 °F 97% 30.05 in 10.0 mi NNW 5.8 mph - N/A   Overcast
9:58 PM 41.2 °F - 39.2 °F 93% 30.06 in 10.0 mi North 2.3 mph - N/A   Overcast
10:58 PM 41.5 °F 36.4 °F 38.3 °F 88% 30.05 in 10.0 mi North 8.1 mph - N/A   Overcast
11:58 PM 43.0 °F 37.7 °F 39.6 °F 88% 30.05 in 10.0 mi North 9.2 mph - N/A   Overcast